Powrót do katalogu

METEOR 2-17 DEB

AktywnyPO
NORAD 38541·DEBRIS·🇷🇺 Russia

Wystrzelony Jan 30, 1988 z Plesetsk Cosmodrome

Loading…

Następne Przeloty (najbliższe 24 godziny)

TLE

Starzejące sięSource: Space-Track

Epoka: Sep 4, 2026, 01:49 UTC

1 38541U 88005AU  26247.07605299  .00001347  00000-0  72334-3 0  9998
2 38541  82.5167 163.5638 0006181 345.6714  14.4285 14.12332814670769

Śledź METEOR 2-17 DEB w czasie rzeczywistym z AllMySat

Download on the App Store